Tracking 28081 objects as of 27-Sep-2023
HD Live streaming from Space Station
objects crossing your sky now

STARLINK-5218

Track STARLINK-5218 now!
10-day predictions
STARLINK-5218 is classified as:


NORAD ID: 55636
Int'l Code: 2023-021J
Perigee: 576.8 km
Apogee: 581.5 km
Inclination: 70.0 °
Period: 96.1 minutes
Semi major axis: 6950 km
RCS: Unknown
Launch date: February 17, 2023
Source: United States (US)
Launch site: AIR FORCE WESTERN TEST RANGE (AFWTR)
Your satellite tracking list
Your tracking list is empty




NASA's NSSDC Master Catalog

Two Line Element Set (TLE):
1 55636U 23021J   23269.53057389  .00004224  00000-0  36155-3 0  9990
2 55636  69.9985 301.4025 0003394 275.8980  84.1792 14.98332133 33910
Source of the keplerian elements: AFSPC